Back to catalog

STARLINK-11355

AliveCommunicationsVLEO
NORAD 62415·PAYLOAD·🇺🇸 United States

Launched Dec 23, 2024 from Cape Canaveral Space Force Station

Loading…

Next Passes (next 24 hours)

TLE

FreshSource: CelesTrak SupGP

Epoch: Sep 14, 2026, 22:39 UTC

1 62415C 24249G   26257.94423611  .00018843  00000+0  14640-3 0  2579
2 62415  43.0007 106.6705 0001815 264.1004 247.4531 15.70821096    17

Track STARLINK-11355 in real time with AllMySat

Download on the App Store